Flag for Germany Weather past 2 weeks in Rendsburg, Schleswig-Holstein, Germany

Now
34 °F

Passing clouds.


Feels Like: 29 °F
Forecast: 33 / 45 °F
Wind: 6 mph from West

Location: Hohn

Current Time: Feb 27, 2015 at 10:37:23 PM

Latest Report: Feb 27, 2015 at 9:20 PM


Visibility: N/A

Pressure: 30.04 "Hg

Humidity: 93%

Dew point: 32 °F

Location of RendsburgLocation

Historic Weather in Rendsburg — Graph

°F

Rendsburg temperature yesterday

Maximum temperature yesterday: 45 °F (at 1:20 PM)
Minimum temperature yesterday: 37 °F (at 12:20 AM)
Average temperature yesterday: 41 °F

Past Weeks' High & Low Weather Summary

 TemperatureHumidityPressure
High45 °F (Feb 18, 2:20 PM)100% (Feb 13, 9:20 AM)30.63 "Hg (Feb 13, 9:20 AM)
Low25 °F (Feb 17, 7:20 AM)57% (Feb 19, 2:20 PM)29.21 "Hg (Feb 21, 11:20 AM)
Average37 °F88%29.92 "Hg
* Reported Feb 12 8:20 PM — Feb 27 8:20 PM, Rendsburg, Weather by CustomWeather, © 2015

Note: Actual official high and low records may vary slightly from our data, if they occured in-between our weather recording intervals... More about our weather records

Advertising

Rendsburg weather history for previous 24 hours

 ConditionsComfort  
Time TempWeatherWind HumidityBarometerVisibility
8:20 PM
Fri, Feb 27
36 °FPassing clouds.8 mph93%30.01 "HgN/A
7:20 PM37 °FPassing clouds.8 mph87%29.98 "HgN/A
6:20 PM39 °FPassing clouds.9 mph87%29.98 "HgN/A
5:20 PM43 °FPartly sunny.14 mph76%29.95 "HgN/A
4:20 PM45 °FBroken clouds.14 mph76%29.92 "HgN/A
3:20 PM45 °FBroken clouds.10 mph76%29.92 "HgN/A
2:20 PM45 °FBroken clouds.14 mph81%29.89 "HgN/A
1:20 PM43 °FBroken clouds.13 mph87%29.89 "HgN/A
12:20 PM43 °FLight rain. Partly sunny.9 mph87%29.86 "HgN/A
11:20 AM41 °FLight rain. Partly sunny.9 mph93%29.86 "HgN/A
10:20 AM41 °FLight rain. Fog.5 mph93%29.83 "Hg3 mi
9:59 AM39 °FLight rain. Fog.No wind100%29.83 "Hg2 mi
9:20 AM39 °FLight rain. Fog.2 mph100%29.83 "Hg2 mi
8:20 AM39 °FDrizzle. Fog.2 mph100%29.80 "Hg1 mi
7:20 AM39 °FLight rain. Fog.2 mph100%29.80 "Hg1 mi
6:20 AM39 °FLight rain. Fog.2 mph100%29.77 "Hg3 mi
5:20 AM39 °FLight rain. Fog.5 mph100%29.77 "Hg3 mi
4:20 AM39 °FLight rain. Fog.7 mph100%29.77 "Hg3 mi
3:20 AM39 °FDrizzle. Fog.7 mph100%29.77 "Hg2 mi
2:20 AM39 °FDrizzle. Fog.10 mph100%29.80 "Hg1 mi
1:20 AM41 °FPassing clouds.13 mph87%29.80 "Hg3 mi
12:20 AM43 °FLight rain. Passing clouds.10 mph71%29.80 "HgN/A
11:20 PM
Thu, Feb 26
43 °FPassing clouds.9 mph71%29.80 "HgN/A
10:20 PM45 °FPassing clouds.12 mph66%29.83 "HgN/A
Weather by CustomWeather, © 2015

See weather overviewHow to use our weather pages